HYLAS 1

Last updated on Sat Apr 26 2025 00:02:41 GMT+0000 (Coordinated Universal Time)

1 37237U 10065A 25115.34603007 -.00000264 00000+0 00000+0 0 9992 2 37237 4.5799 78.1281 0001186 27.0032 188.4426 0.99651781 2691
UTC large
Height (km)
Speed (km/s)
/
Latitude / Longitude
Inclination (degrees)
Orbital Period (minutes)
Azimuth
Elevation
Range (km)
Doppler Factor

Next 0 passes for location: London (51.5072 / 0.1276)

Sorry there are no passes over London.